This is the latest recevied weather packets stored in our database for station/object G0TRT-13. If no packets are shown the sender has not sent any weather packets the latest 1 day(s).
| Time | Temp. | Humidity | Pressure | Rain* | Wind** | Luminosity | Snow |
|---|---|---|---|---|---|---|---|
| 1778079502 | 16.11° C | 50% | 1013.2 hPa | 0 mm | - | - | - |
| 1778079200 | 16.11° C | 48% | 1013.2 hPa | 0 mm | - | - | - |
| 1778078899 | 15.56° C | 48% | 1013.2 hPa | 0 mm | - | - | - |
| 1778078600 | 15° C | 51% | 1013.2 hPa | 0 mm | - | - | - |
| 1778078000 | 15° C | 52% | 1013.3 hPa | 0 mm | - | - | - |
| 1778077700 | 15° C | 52% | 1013.4 hPa | 0 mm | - | - | - |
| 1778076799 | 14.44° C | 54% | 1013.4 hPa | 0 mm | - | - | - |
| 1778075599 | 14.44° C | 52% | 1013.7 hPa | 0 mm | - | - | - |
| 1778074999 | 15° C | 49% | 1013.5 hPa | 0 mm | - | - | - |
| 1778074100 | 16.11° C | 47% | 1013.6 hPa | 0 mm | - | - | - |
| 1778073495 | 15.56° C | 50% | 1013.5 hPa | 0 mm | - | - | - |
| 1778073195 | 15.56° C | 48% | 1013.6 hPa | 0 mm | - | - | - |
| 1778072893 | 15.56° C | 47% | 1013.7 hPa | 0 mm | - | - | - |
| 1778072594 | 16.11° C | 49% | 1013.8 hPa | 0 mm | - | - | - |
| 1778072294 | 15.56° C | 49% | 1013.7 hPa | 0 mm | - | - | - |
| 1778071691 | 15.56° C | 48% | 1013.7 hPa | 0 mm | - | - | - |
| 1778068369 | 14.44° C | 50% | 1013.9 hPa | 0 mm | - | - | - |
| 1778068063 | 14.44° C | 47% | 1013.9 hPa | 0 mm | - | - | - |
| 1778067163 | 14.44° C | 49% | 1013.9 hPa | 0 mm | - | - | - |
| 1778066862 | 14.44° C | 52% | 1013.9 hPa | 0 mm | - | - | - |
| 1778066560 | 14.44° C | 52% | 1013.9 hPa | 0 mm | - | - | - |
| 1778065661 | 13.89° C | 54% | 1013.9 hPa | 0 mm | - | - | - |
| 1778065057 | 13.33° C | 54% | 1014 hPa | 0 mm | - | - | - |
| 1778064757 | 13.33° C | 57% | 1014 hPa | 0 mm | - | - | - |
| 1778064457 | 13.33° C | 54% | 1014 hPa | 0 mm | - | - | - |
* Rain latest hour (hover to see other rain measurements)
** Current wind speed in m/s (hover to see current wind gust speed)